Tracking 20621 objects as of 30-Mar-2020
HD Live streaming from Space Station
objects crossing your sky now

METEOR 2-14

Track METEOR 2-14 now!
10-day predictions
METEOR 2-14 is classified as:


NORAD ID: 16735
Int'l Code: 1986-039A
Perigee: 940.6 km
Apogee: 963.9 km
Inclination: 82.5 °
Period: 103.9 minutes
Semi major axis: 7323 km
RCS: 4.6711 m2 (large)
Launch date: May 27, 1986
Source: Commonwealth of Independent States (former USSR) (CIS)
Launch site: PLESETSK MISSILE AND SPACE COMPLEX (PKMTR)
aabbcc
Your satellite tracking list
Your tracking list is empty




NASA's NSSDC Master Catalog

Two Line Element Set (TLE):
1 16735U 86039A   20089.84181628 +.00000018 +00000-0 +28762-5 0  9994
2 16735 082.5329 293.5624 0015946 106.3139 265.1108 13.85304870710350
Source of the keplerian elements: AFSPC